Location: C�mpuri de-Sus
(45.9500°N, 22.5500°E)
Time: 04:39:59
(UTC+00:00)

ATLAS 5 CENTAUR R/B - Pass Details

Date: 24 October 2021
Orbit: 497 x 1159 km, 63.4° (Epoch: 25 November)

Event Time Altitude Azimuth Distance (km) Brightness Sun altitude
Rises 17:52:07 0° 282° (WNW) 2,714 6.2 -25.6°
Reaches altitude 10° 17:55:17 10° 311° (NW) 1,918 4.8 -26.1°
Maximum altitude 17:57:26 13° 341° (NNW) 1,778 4.2 -26.5°
Enters shadow 17:59:26 11° 7° (N) 2,023 4.2 -26.9°
